K3TOW Weather Reports


Display with metric or nautical units.
time (UTC)temp
F
wind
direction
speed
MPH
gust
MPH
rain 1hr
in
rain 24hr
in
rain mn
in
humidity
%
barometer
mb
20260502203003 54 312 1.0 7.0 0.00 0.23 0.10 44 1009.3
20260502202003 54 272 2.0 6.0 0.00 0.23 0.10 45 1009.3
20260502201003 54 290 1.0 6.0 0.00 0.23 0.10 48 1009.3
20260502200003 54 229 2.0 7.0 0.00 0.23 0.10 44 1009.5
20260502195003 54 251 1.0 5.0 0.00 0.23 0.10 44 1009.6
20260502194003 54 295 1.0 10.0 0.00 0.23 0.10 47 1009.9
20260502193003 55 290 0.0 4.0 0.00 0.23 0.10 43 1010.0
20260502192003 56 299 0.0 3.0 0.00 0.23 0.10 45 1010.2
20260502191003 56 329 1.0 5.0 0.00 0.23 0.10 43 1010.3
20260502190004 55 1 2.0 6.0 0.00 0.23 0.10 42 1010.4
20260502185003 56 30 1.0 4.0 0.00 0.23 0.10 42 1010.4
20260502184214 55 296 1.0 4.0 0.00 0.23 0.10 43 1010.5
20260502183003 56 357 1.0 4.0 0.00 0.23 0.10 43 1010.6
20260502182003 56 41 2.0 6.0 0.00 0.23 0.10 42 1010.5
20260502181003 55 50 1.0 3.0 0.00 0.23 0.10 44 1010.5
20260502164003 52 290 1.0 7.0 0.00 0.23 0.10 47 1010.9
20260502163213 52 273 1.0 7.0 0.00 0.23 0.10 47 1011.0
20260502162003 53 326 0.0 2.0 0.00 0.23 0.10 47 1010.9
20260502161213 52 296 2.0 6.0 0.00 0.23 0.10 47 1010.9
20260502152003 52 291 2.0 7.0 0.00 0.23 0.10 52 1011.2
20260502151003 52 244 2.0 7.0 0.00 0.23 0.10 49 1011.3
20260502123003 43 321 1.0 5.0 0.00 0.23 0.10 91 1012.0
20260502122003 42 294 1.0 6.0 0.00 0.23 0.10 92 1011.8
20260502121003 42 326 0.0 1.0 0.00 0.23 0.10 94 1011.8
20260502115213 41 0 0.0 0.0 0.00 0.23 0.10 95 1011.7
20260502114003 41 0 0.0 0.0 0.00 0.23 0.10 95 1011.7
20260502113003 41 0 0.0 0.0 0.00 0.23 0.10 95 1011.9
20260502112003 41 0 0.0 0.0 0.00 0.23 0.10 94 1011.9
20260502111003 41 0 0.0 0.0 0.00 0.23 0.10 95 1012.0
20260502110004 41 0 0.0 0.0 0.00 0.23 0.10 95 1011.9
20260502105213 41 0 0.0 0.0 0.00 0.23 0.10 95 1011.8
20260502104003 41 0 0.0 0.0 0.00 0.23 0.10 94 1011.7
20260502103003 42 0 0.0 0.0 0.00 0.23 0.10 95 1011.5
20260502102003 42 0 0.0 0.0 0.00 0.23 0.10 95 1011.4
20260502101003 42 0 0.0 0.0 0.00 0.23 0.10 95 1011.3
20260502100212 41 0 0.0 0.0 0.00 0.23 0.10 94 1011.2
20260502091003 42 0 0.0 0.0 0.02 0.23 0.10 93 1010.8
20260502071003 47 0 0.0 0.0 0.01 0.16 0.03 95 1009.1
20260502070003 47 0 0.0 0.0 0.01 0.16 0.03 95 1009.2
20260502065003 47 0 0.0 0.0 0.01 0.16 0.03 95 1009.3
20260502064003 47 0 0.0 0.0 0.01 0.16 0.03 95 1009.4
20260502063003 47 0 0.0 0.0 0.01 0.16 0.03 95 1009.4
20260502062213 47 0 0.0 0.0 0.01 0.16 0.03 95 1009.5
20260502061003 47 0 0.0 0.0 0.00 0.15 0.02 95 1009.6
20260502060003 47 0 0.0 0.0 0.00 0.15 0.02 95 1009.8
20260502055003 47 0 0.0 0.0 0.01 0.15 0.02 95 1009.8
20260502054003 47 0 0.0 0.0 0.01 0.15 0.02 95 1010.1
20260502053003 47 0 0.0 0.0 0.02 0.15 0.02 95 1010.0
20260502052213 47 0 0.0 0.0 0.02 0.15 0.02 95 1009.9
20260502051003 47 0 0.0 0.0 0.02 0.15 0.02 95 1010.1
20260502050003 47 0 0.0 0.0 0.02 0.15 0.02 95 1010.2
20260502045003 47 0 0.0 0.0 0.04 0.14 0.01 95 1010.2
20260502044003 47 0 0.0 0.0 0.05 0.14 0.01 95 1010.1
20260502043003 48 0 0.0 0.0 0.04 0.13 0.00 95 1010.1
20260502042214 48 0 0.0 0.0 0.04 0.13 0.00 95 1010.1
20260502041003 48 0 0.0 0.0 0.05 0.13 0.00 95 1010.3
20260502040004 48 0 0.0 0.0 0.05 0.13 0.00 95 1010.1
20260502035214 48 0 0.0 0.0 0.03 0.11 0.11 95 1010.2
20260502034003 48 0 0.0 0.0 0.02 0.09 0.09 95 1010.1
20260502033003 48 0 0.0 0.0 0.02 0.09 0.09 94 1010.0
20260502032214 48 0 0.0 0.0 0.04 0.09 0.09 94 1010.1
20260502031003 48 0 0.0 0.0 0.03 0.08 0.08 94 1010.1
20260502030003 48 0 0.0 0.0 0.03 0.08 0.08 94 1010.1
20260502025214 48 0 0.0 0.0 0.03 0.08 0.08 94 1010.1
20260502024003 48 0 0.0 0.0 0.03 0.07 0.07 94 1010.1
20260502023003 48 0 0.0 0.0 0.03 0.07 0.07 94 1010.3
20260502022213 48 0 0.0 0.0 0.01 0.05 0.06 94 1010.4
20260502021003 48 0 0.0 0.0 0.02 0.05 0.05 94 1010.2
20260502020003 48 0 0.0 0.0 0.03 0.05 0.05 94 1010.3
20260502015003 48 0 0.0 0.0 0.03 0.05 0.05 94 1010.1
20260502014003 48 0 0.0 0.0 0.02 0.04 0.04 94 1010.1
20260502013003 48 0 0.0 0.0 0.02 0.04 0.04 93 1010.0
20260502012003 48 0 0.0 0.0 0.02 0.04 0.04 93 1009.9
20260502011003 49 0 0.0 0.0 0.01 0.03 0.03 93 1010.0
20260502010003 49 0 0.0 0.0 0.00 0.02 0.02 93 1009.8
20260502005003 49 0 0.0 0.0 0.01 0.02 0.02 92 1009.8
20260502004003 49 0 0.0 0.0 0.01 0.02 0.02 92 1009.8
20260502003003 49 0 0.0 0.0 0.01 0.02 0.02 91 1009.8
20260502002003 49 0 0.0 0.0 0.02 0.03 0.02 90 1009.7
20260502001003 50 0 0.0 0.0 0.02 0.04 0.02 89 1009.6
20260502000003 50 0 0.0 0.0 0.02 0.04 0.02 88 1009.6
20260501235003 51 0 0.0 0.0 0.01 0.03 0.01 85 1009.5
20260501234003 52 42 0.0 2.0 0.01 0.03 0.01 83 1009.6
20260501233003 52 28 1.0 9.0 0.01 0.03 0.01 80 1009.6
20260501232212 53 10 1.0 5.0 0.00 0.03 0.00 77 1009.5
20260501231003 54 6 2.0 7.0 0.00 0.03 0.00 72 1009.3
20260501230214 54 3 1.0 5.0 0.00 0.03 0.00 73 1009.2
20260501225003 55 0 0.0 0.0 0.00 0.03 0.00 71 1008.9
20260501224003 56 0 0.0 0.0 0.00 0.03 0.00 68 1008.8
20260501223003 56 302 0.0 1.0 0.00 0.04 0.00 66 1008.8
20260501222003 56 0 0.0 0.0 0.00 0.05 0.00 65 1008.7
20260501221003 56 300 1.0 4.0 0.00 0.05 0.00 63 1008.7
20260501220214 56 291 0.0 2.0 0.00 0.05 0.00 64 1008.6
20260501215214 57 305 0.0 4.0 0.00 0.05 0.00 63 1008.5
20260501214003 57 344 0.0 2.0 0.00 0.05 0.00 72 1008.4
20260501213003 57 344 0.0 2.0 0.00 0.05 0.00 61 1008.3
20260501212213 58 1 0.0 2.0 0.00 0.05 0.00 60 1008.2
20260501211003 58 293 0.0 2.0 0.00 0.05 0.00 60 1008.0
20260501210003 58 316 2.0 7.0 0.00 0.05 0.00 53 1008.1
20260501205003 59 355 2.0 5.0 0.00 0.06 0.00 53 1007.9
20260501204213 60 12 2.0 7.0 0.00 0.06 0.00 54 1008.0